Location: Unspecified
(0.0000°N, 0.0000°E)
Time: 14:37:14
(UTC+00:00)

Hubble Space Telescope - Pass Details

Date: 11 February 2018
Orbit: 537 x 541 km, 28.5° (Epoch: 24 May)

Event Time Altitude Azimuth Distance (km) Brightness Sun altitude
Rises 19:19:28 0° 262° (W) 2,671 6.1 -15.8°
Reaches altitude 10° 19:23:01 10° 231° (SW) 1,781 4.4 -16.7°
Maximum altitude 19:24:41 12° 207° (SSW) 1,649 3.8 -17.1°
Drops below altitude 10° 19:26:20 10° 183° (S) 1,782 3.6 -17.5°
Sets 19:29:54 0° 152° (SSE) 2,674 4.2 -18.3°
